Regional Weather Roundup
Issued by NWS Lake Charles, LA

Home | Current Version | Previous Version | Text Only | Print | Product List | Glossary On
Versions: 1 2 3 4 5 6 7 8 9 10 11 12 13 14 15 16 17 18 19 20 21 22 23 24 25 26 27 28 29 30 31 32 33 34 35 36 37 38 39 40 41 42 43 44 45 46 47 48 49 50
000
ASUS44 KLCH 220710
RWRLCH
REGIONAL WEATHER ROUNDUP
NATIONAL WEATHER SERVICE LAKE CHARLES LA
200 AM CDT FRI SEP 22 2017

Note: "fair" indicates few or no clouds below 12,000 feet with no
significant weather and/or obstructions to visibility.


ACROSS SOUTHEAST TEXAS

CITY           SKY/WX    TMP DP  RH WIND       PRES   REMARKS
BEAUMONT       PTCLDY    74  72  93 E6        29.95S
BEAUMONT CITY  FAIR      75  72  91 E3        29.96S
ORANGE         SUNNY     73  73 100 CALM      29.97F FOG
JASPER         CLEAR     72  72  99 CALM      29.99S FOG
$$

ACROSS CENTRAL LOUISIANA

CITY           SKY/WX    TMP DP  RH WIND       PRES   REMARKS
LEESVILLE      CLEAR     73  71  94 CALM      29.97S
FULLERTON      FAIR      71  70  96 CALM      29.96S
ALEXANDRIA INT CLEAR     73  71  93 CALM      29.96S
ESLER FIELD    CLEAR     71  71 100 CALM      29.97S FOG
DERIDDER       FAIR      73  72  96 CALM      29.99F
OAKDALE        SUNNY     70  69  96 CALM      29.97S FOG
OPELOUSAS      FAIR      71  71  99 CALM      29.97S FOG
$$

ACROSS SOUTHWEST AND SOUTH CENTRAL LOUISIANA

CITY           SKY/WX    TMP DP  RH WIND       PRES   REMARKS
SULPHUR        SUNNY     75  74  97 CALM      29.97S
LAKE CHARLES   CLEAR     74  72  93 CALM      29.96S
CHENNAULT INT    N/A     73  69  88 CALM      29.97S
CAMERON PHI      N/A     81  73  78 SE5       29.95S
DEQUINCY       FAIR      71  70  97 CALM      29.97S
JENNINGS       FAIR      74  73  97 CALM      29.97S
LAFAYETTE      CLEAR     75  74  96 CALM      29.97S
NEW IBERIA     CLEAR     72  70  93 CALM      29.97F FOG
ABBEVILLE      FOG       70  70 100 CALM      29.97S VSB 3/4
PATTERSON      CLEAR     73  73 100 CALM      29.97F
SALT POINT       N/A     76  72  87 CALM      29.95S
$$

SELECTED SITES ACROSS THE REGION

CITY           SKY/WX    TMP DP  RH WIND       PRES   REMARKS
HOUSTON BUSH   PTCLDY    73  72  96 CALM      29.94S
HOUSTON HOBBY  PTCLDY    77  74  90 S3        29.93S
GALVESTON      NOT AVBL
COLLEGE STAT   CLEAR     75  73  93 SE7       29.94F
CONROE         FOG       72  71  97 CALM      29.95S VSB 3/4
HUNTSVILLE     PTCLDY    76  72  87 S3        29.96R
LUFKIN         PTCLDY    71  71 100 E3        29.96S
SHREVEPORT     PTCLDY    71  70  96 CALM      29.96S
MONROE         CLEAR     73  72  96 CALM      29.98S
NATCHEZ MS     CLEAR     72  70  93 CALM      29.99S
BATON ROUGE    CLEAR     72  70  93 CALM      29.97S
N.O. INTL ARPT PTCLDY    76  74  93 CALM      29.96S
SLIDELL        CLEAR     72  69  90 CALM      29.96S
$$

MARINE REPORTS

STATION/POSITION TIME  SKY/WX   TEMP    WIND        PRES    VSBY
                                AIR SEA DIR/SP/G
                 (UTC)          (F)     (DEG/KT/KT) (MB)    (MI)
BUOY 30 S HIGH I NOT AVBL
SEA RIM ST PARK  0600            81     150/  8/ 10 1014.9F
PORT ARTHUR      0648            80 82  150/  3/  6 1014.5F
SABINE PASS N    0648            81 84  150/  6/  7 1015.8S
TEXAS POINT      NOT AVBL
CALCASIEU PASS   0648            81 84  190/  5/  7 1013.6R
LK CHARLES BEACH 0648            77 82              1014.2F
MARSH ISLAND     0600            82                   N/A
FRESH WATER LOCK 0648            79 86   30/  1/  2 1014.5S
AMERADA PASS     0648            76 83   70/  2/  3 1014.4F
$$



USA.gov is the U.S. government's official web portal to all federal, state and local government web resources and services.